FW4250 Weather Reports


Display with metric or nautical units.
time (UTC)temp
F
wind
direction
speed
MPH
gust
MPH
rain 1hr
in
rain 24hr
in
rain mn
in
humidity
%
barometer
mb
20260509005526 66 165 4.0 6.0 0.00 0.10 0.10 78 986.5
20260509005023 66 192 3.0 7.0 0.00 0.10 0.10 79 986.4
20260509004527 66 165 4.0 6.0 0.00 0.10 0.10 79 986.4
20260509004024 66 141 4.0 8.0 0.00 0.10 0.10 78 986.5
20260509003523 66 190 4.0 8.0 0.00 0.10 0.10 78 986.5
20260509003041 66 153 5.0 9.0 0.00 0.10 0.10 78 986.5
20260509002522 66 206 4.0 7.0 0.00 0.10 0.10 78 986.5
20260509002023 67 207 4.0 9.0 0.00 0.10 0.10 77 986.4
20260509001522 67 151 5.0 9.0 0.00 0.10 0.10 77 986.4
20260509001021 68 186 5.0 8.0 0.00 0.10 0.10 76 986.4
20260509000524 67 210 3.0 8.0 0.00 0.10 0.10 76 986.4
20260509000021 68 205 5.0 9.0 0.00 0.10 0.10 76 986.4
20260508235521 68 167 5.0 9.0 0.00 0.10 0.10 75 986.4
20260508235021 69 210 4.0 9.0 0.00 0.10 0.10 74 986.5
20260508234525 69 175 4.0 10.0 0.00 0.10 0.10 75 986.5
20260508234020 69 180 5.0 10.0 0.00 0.10 0.10 74 986.6
20260508233520 69 229 5.0 9.0 0.00 0.10 0.10 74 986.6
20260508233019 69 173 3.0 10.0 0.00 0.10 0.10 75 986.6
20260508232518 70 202 5.0 9.0 0.00 0.10 0.10 74 986.6
20260508232019 70 205 4.0 9.0 0.00 0.10 0.10 74 986.6
20260508231517 69 184 4.0 10.0 0.00 0.10 0.10 74 986.8
20260508231017 69 194 4.0 9.0 0.00 0.10 0.10 74 986.9
20260508230516 70 190 4.0 10.0 0.00 0.10 0.10 74 986.9
20260508230016 70 181 6.0 10.0 0.00 0.10 0.10 74 986.9
20260508225521 70 173 7.0 12.0 0.00 0.10 0.10 72 987.0
20260508225016 71 182 6.0 12.0 0.00 0.10 0.10 73 987.0
20260508224514 70 203 5.0 10.0 0.00 0.10 0.10 73 987.0
20260508224014 70 173 5.0 10.0 0.00 0.10 0.10 73 987.1
20260508223517 70 236 5.0 10.0 0.00 0.10 0.10 73 987.1
20260508223017 71 182 6.0 10.0 0.00 0.10 0.10 72 987.2
20260508222513 71 186 4.0 10.0 0.00 0.10 0.10 72 987.2
20260508222012 71 233 4.0 10.0 0.00 0.10 0.10 72 987.4
20260508221517 71 179 7.0 11.0 0.00 0.10 0.10 72 987.5
20260508221012 71 200 5.0 10.0 0.00 0.10 0.10 73 987.4
20260508220516 71 190 5.0 9.0 0.00 0.10 0.10 72 987.6
20260508220016 71 182 6.0 9.0 0.00 0.10 0.10 71 987.7
20260508215511 71 169 5.0 10.0 0.00 0.10 0.10 71 987.7
20260508215011 72 190 4.0 9.0 0.00 0.10 0.10 71 987.7
20260508214511 72 176 5.0 9.0 0.00 0.10 0.10 71 987.7
20260508214009 71 202 4.0 14.0 0.00 0.10 0.10 72 987.8
20260508213509 72 205 5.0 14.0 0.00 0.10 0.10 72 987.8
20260508213008 71 188 4.0 10.0 0.00 0.10 0.10 73 987.9
20260508212509 71 237 4.0 10.0 0.00 0.10 0.10 73 988.0
20260508212007 71 167 6.0 10.0 0.00 0.10 0.10 73 988.0
20260508211506 70 159 6.0 11.0 0.00 0.10 0.10 73 988.1
20260508211006 71 202 5.0 10.0 0.00 0.10 0.10 72 988.1
20260508210505 71 180 5.0 10.0 0.00 0.10 0.10 72 988.2
20260508210004 71 186 6.0 10.0 0.00 0.10 0.10 74 988.3
20260508205504 70 227 5.0 10.0 0.00 0.10 0.10 73 988.3
20260508205004 71 199 7.0 9.0 0.00 0.10 0.10 72 988.4
20260508204506 71 213 5.0 8.0 0.00 0.10 0.10 74 988.4
20260508204002 71 174 5.0 10.0 0.00 0.10 0.10 74 988.4
20260508203503 70 163 7.0 12.0 0.01 0.10 0.10 73 988.5
20260508203001 71 171 6.0 11.0 0.01 0.10 0.10 74 988.6
20260508202600 70 204 5.0 10.0 0.01 0.10 0.10 73 988.6
20260508202059 70 175 6.0 10.0 0.01 0.10 0.10 74 988.7
20260508201610 70 163 6.0 11.0 0.01 0.10 0.10 75 988.7
20260508201057 70 168 5.0 11.0 0.01 0.10 0.10 74 988.8
20260508200557 69 188 5.0 10.0 0.01 0.10 0.10 75 988.8
20260508200106 69 184 4.0 9.0 0.01 0.10 0.10 76 988.9
20260508195555 68 188 6.0 9.0 0.01 0.10 0.10 77 988.9
20260508195054 68 182 5.0 10.0 0.01 0.10 0.10 79 989.0
20260508194558 68 184 5.0 10.0 0.01 0.10 0.10 78 989.1
20260508194057 68 178 6.0 10.0 0.01 0.10 0.10 78 989.0
20260508193554 68 243 5.0 9.0 0.00 0.09 0.09 78 989.0
20260508193100 68 198 4.0 8.0 0.00 0.09 0.09 78 989.1
20260508192551 67 175 5.0 8.0 0.00 0.09 0.09 79 989.2
20260508192050 67 186 3.0 7.0 0.00 0.09 0.09 79 989.2
20260508191550 66 125 3.0 8.0 0.00 0.09 0.09 81 989.1
20260508191048 66 175 3.0 7.0 0.00 0.09 0.09 82 989.3
20260508190548 65 196 3.0 8.0 0.00 0.09 0.09 83 989.4
20260508190047 65 185 3.0 8.0 0.00 0.09 0.09 87 989.4
20260508185547 64 158 1.0 7.0 0.00 0.09 0.09 90 989.5
20260508185043 63 156 2.0 7.0 0.00 0.09 0.09 92 989.5
20260508184550 63 189 4.0 7.0 0.00 0.09 0.09 93 989.5
20260508184040 62 140 2.0 5.0 0.00 0.09 0.09 96 989.6
20260508183539 61 132 2.0 5.0 0.00 0.09 0.09 96 989.7
20260508183046 61 180 3.0 5.0 0.00 0.09 0.09 97 989.7
20260508182538 61 130 1.0 6.0 0.00 0.09 0.09 97 989.7
20260508182036 60 188 2.0 5.0 0.00 0.09 0.09 97 989.9
20260508181535 59 184 3.0 5.0 0.00 0.09 0.09 97 989.9
20260508181034 58 180 1.0 7.0 0.00 0.09 0.09 97 990.0
20260508180532 58 180 3.0 7.0 0.00 0.09 0.09 97 990.0
20260508180030 58 196 2.0 5.0 0.00 0.09 0.09 97 990.0
20260508175530 58 198 2.0 5.0 0.00 0.09 0.09 97 990.1
20260508175031 58 176 2.0 5.0 0.00 0.09 0.09 97 990.1
20260508174546 58 177 0.0 5.0 0.00 0.09 0.09 97 990.1
20260508174032 58 177 2.0 5.0 0.00 0.09 0.09 97 990.2
20260508173529 57 177 0.0 3.0 0.00 0.09 0.09 97 990.2
20260508173031 57 177 1.0 4.0 0.00 0.09 0.09 97 990.2
20260508172527 57 177 1.0 4.0 0.00 0.09 0.09 97 990.2
20260508172026 57 175 1.0 5.0 0.00 0.09 0.09 97 990.2
20260508171526 57 176 0.0 5.0 0.00 0.09 0.09 97 990.2
20260508171027 57 175 2.0 4.0 0.00 0.09 0.09 97 990.1
20260508170525 57 175 1.0 3.0 0.00 0.09 0.09 97 990.1
20260508170031 57 175 0.0 3.0 0.00 0.09 0.09 97 990.1
20260508165525 56 175 1.0 3.0 0.00 0.09 0.09 97 990.1
20260508165025 56 175 1.0 4.0 0.01 0.09 0.09 97 990.1
20260508164525 56 175 1.0 4.0 0.02 0.09 0.09 97 990.0
20260508164025 56 174 0.0 7.0 0.04 0.09 0.09 97 990.0
20260508163524 56 146 0.0 3.0 0.05 0.09 0.09 97 990.1
20260508163038 56 146 0.0 2.0 0.06 0.09 0.09 97 990.0
20260508162523 56 146 1.0 3.0 0.07 0.09 0.09 97 990.0
20260508162022 56 146 1.0 3.0 0.09 0.09 0.09 97 990.1
20260508161522 56 146 0.0 2.0 0.09 0.09 0.09 97 990.1
20260508161023 56 146 0.0 1.0 0.09 0.09 0.09 97 990.0
20260508160525 56 156 0.0 2.0 0.09 0.09 0.09 97 990.1
20260508160024 56 156 0.0 3.0 0.09 0.09 0.09 97 990.0
20260508155521 56 156 1.0 3.0 0.09 0.09 0.09 97 990.0
20260508155021 56 156 0.0 3.0 0.08 0.08 0.08 97 990.1
20260508154521 56 157 1.0 3.0 0.07 0.07 0.07 97 990.2
20260508154018 56 153 0.0 2.0 0.05 0.05 0.05 97 990.2
20260508153518 56 163 0.0 2.0 0.04 0.04 0.04 97 990.2
20260508153026 56 163 0.0 2.0 0.02 0.02 0.02 97 990.2
20260508152516 56 163 0.0 1.0 0.01 0.01 0.01 97 990.1
20260508152015 55 163 0.0 2.0 0.00 0.00 0.00 96 990.2
20260508151523 55 163 0.0 2.0 0.00 0.00 0.00 96 990.2
20260508151018 55 163 1.0 2.0 0.00 0.00 0.00 96 990.1
20260508150515 55 163 0.0 1.0 0.00 0.00 0.00 96 990.1
20260508150013 55 163 0.0 1.0 0.00 0.00 0.00 96 990.0
20260508145513 54 163 0.0 1.0 0.00 0.00 0.00 96 990.0
20260508145013 54 163 0.0 2.0 0.00 0.00 0.00 95 990.0
20260508144512 55 163 0.0 2.0 0.00 0.00 0.00 96 990.0
20260508144012 55 163 0.0 2.0 0.00 0.00 0.00 95 990.0
20260508143511 55 163 0.0 3.0 0.00 0.00 0.00 96 990.1
20260508143010 55 163 1.0 3.0 0.00 0.00 0.00 95 990.1
20260508142510 55 163 0.0 0.0 0.00 0.00 0.00 96 990.0
20260508142009 55 163 0.0 0.0 0.00 0.00 0.00 96 990.0
20260508141508 54 163 0.0 0.0 0.00 0.00 0.00 96 990.0
20260508141009 54 163 0.0 0.0 0.00 0.00 0.00 96 990.0
20260508140512 54 163 0.0 0.0 0.00 0.00 0.00 95 990.0
20260508140007 54 163 0.0 0.0 0.00 0.00 0.00 95 990.0
20260508135508 54 163 0.0 0.0 0.00 0.00 0.00 95 990.0
20260508135009 54 163 0.0 0.0 0.00 0.00 0.00 95 989.7
20260508134504 54 200 0.0 0.0 0.00 0.00 0.00 95 989.8
20260508134004 54 200 0.0 0.0 0.00 0.00 0.00 95 989.6
20260508133503 54 200 0.0 0.0 0.00 0.00 0.00 95 989.7
20260508133002 54 200 0.0 0.0 0.00 0.00 0.00 95 989.7
20260508132501 54 200 0.0 0.0 0.00 0.00 0.00 95 989.5
20260508132000 54 200 0.0 0.0 0.00 0.00 0.00 95 989.6
20260508131601 54 200 0.0 0.0 0.00 0.00 0.00 95 989.6
20260508131103 54 200 0.0 0.0 0.00 0.00 0.00 95 989.6
20260508130559 54 200 0.0 0.0 0.00 0.00 0.00 95 989.5
20260508130110 54 200 0.0 0.0 0.00 0.00 0.00 95 989.5
20260508125559 54 200 0.0 0.0 0.00 0.00 0.00 95 989.4
20260508125059 54 200 0.0 0.0 0.00 0.00 0.00 95 989.4
20260508124558 54 200 0.0 0.0 0.00 0.00 0.00 95 989.4
20260508124058 55 240 0.0 0.0 0.00 0.00 0.00 95 989.4
20260508123602 55 240 0.0 0.0 0.00 0.00 0.00 95 989.4
20260508123057 55 240 0.0 0.0 0.00 0.00 0.00 95 989.4
20260508122556 55 240 0.0 0.0 0.00 0.00 0.00 95 989.4
20260508122056 55 240 0.0 0.0 0.00 0.00 0.00 95 989.4
20260508121556 55 240 0.0 0.0 0.00 0.00 0.00 95 989.3
20260508121056 55 248 0.0 0.0 0.00 0.00 0.00 95 989.4
20260508120555 55 248 0.0 0.0 0.00 0.00 0.00 94 989.2
20260508120055 55 248 0.0 0.0 0.00 0.00 0.00 94 989.3
20260508115555 55 248 0.0 0.0 0.00 0.00 0.00 94 989.3
20260508115054 55 248 0.0 0.0 0.00 0.00 0.00 94 989.1
20260508114554 55 248 0.0 0.0 0.00 0.00 0.00 94 989.2
20260508114054 55 248 0.0 0.0 0.00 0.00 0.00 94 989.1
20260508113554 55 248 0.0 0.0 0.00 0.00 0.00 94 989.2
20260508113056 55 248 0.0 0.0 0.00 0.00 0.00 94 989.1
20260508112552 55 248 0.0 0.0 0.00 0.00 0.00 94 989.1
20260508112052 55 248 0.0 0.0 0.00 0.00 0.00 94 989.1
20260508111552 55 248 0.0 0.0 0.00 0.00 0.00 94 989.0
20260508111053 55 248 0.0 0.0 0.00 0.00 0.00 94 989.0
20260508110552 55 248 0.0 0.0 0.00 0.00 0.00 94 989.1
20260508110113 55 248 0.0 0.0 0.00 0.00 0.00 94 989.0
20260508105551 55 248 0.0 0.0 0.00 0.00 0.00 94 989.1
20260508105054 54 248 0.0 0.0 0.00 0.00 0.00 94 989.0
20260508104050 54 248 0.0 0.0 0.00 0.00 0.00 94 988.8
20260508103551 54 248 0.0 0.0 0.00 0.00 0.00 94 988.9
20260508103049 54 248 0.0 0.0 0.00 0.00 0.00 93 988.9
20260508102550 54 248 0.0 0.0 0.00 0.00 0.00 93 988.9
20260508102049 54 248 0.0 0.0 0.00 0.00 0.00 93 988.9
20260508101553 55 248 0.0 0.0 0.00 0.00 0.00 93 988.9
20260508101049 55 248 0.0 0.0 0.00 0.00 0.00 93 988.8
20260508100548 55 248 0.0 0.0 0.00 0.00 0.00 93 988.9
20260508100049 55 248 0.0 0.0 0.00 0.00 0.00 93 988.9
20260508095550 55 248 0.0 0.0 0.00 0.00 0.00 93 989.0
20260508095052 55 248 0.0 0.0 0.00 0.00 0.00 93 988.9
20260508094554 55 248 0.0 0.0 0.00 0.00 0.00 93 988.9
20260508094048 54 248 0.0 0.0 0.00 0.00 0.00 93 988.9
20260508093548 54 248 0.0 0.0 0.00 0.00 0.00 93 988.8
20260508093056 54 248 0.0 0.0 0.00 0.00 0.00 93 988.8
20260508092547 54 248 0.0 0.0 0.00 0.00 0.00 93 988.9
20260508092046 54 248 0.0 0.0 0.00 0.00 0.00 93 988.9
20260508091546 54 248 0.0 0.0 0.00 0.00 0.00 93 988.8
20260508091046 54 248 0.0 0.0 0.00 0.00 0.00 93 988.8
20260508090545 54 248 0.0 0.0 0.00 0.00 0.00 93 988.8
20260508090104 54 248 0.0 0.0 0.00 0.00 0.00 92 988.8
20260508085546 54 248 0.0 0.0 0.00 0.00 0.00 92 988.8
20260508085044 54 248 0.0 0.0 0.00 0.00 0.00 92 988.8
20260508084544 54 248 0.0 0.0 0.00 0.00 0.00 92 988.8
20260508084046 55 248 0.0 0.0 0.00 0.00 0.00 92 988.8
20260508083548 55 248 0.0 0.0 0.00 0.00 0.00 92 988.8
20260508083042 55 248 0.0 0.0 0.00 0.00 0.00 91 988.9
20260508082542 55 248 0.0 0.0 0.00 0.00 0.00 91 988.9
20260508082042 55 248 0.0 0.0 0.00 0.00 0.00 91 988.8
20260508081542 55 248 0.0 0.0 0.00 0.00 0.00 91 988.8
20260508081041 55 248 0.0 0.0 0.00 0.00 0.00 90 988.8
20260508080540 55 248 0.0 0.0 0.00 0.00 0.00 91 988.9
20260508080050 55 248 0.0 0.0 0.00 0.00 0.00 91 988.9
20260508075539 56 248 0.0 0.0 0.00 0.00 0.00 90 988.9
20260508075042 56 248 0.0 0.0 0.00 0.00 0.00 90 988.9
20260508074541 56 248 0.0 0.0 0.00 0.00 0.00 90 988.9
20260508074038 56 248 0.0 0.0 0.00 0.00 0.00 90 988.9
20260508073537 56 248 0.0 0.0 0.00 0.00 0.00 91 989.0
20260508073037 56 248 0.0 1.0 0.00 0.00 0.00 91 988.9
20260508072539 56 248 0.0 2.0 0.00 0.00 0.00 90 988.9
20260508072036 57 248 0.0 4.0 0.00 0.00 0.00 91 988.8
20260508071537 57 247 0.0 0.0 0.00 0.00 0.00 91 988.9
20260508071035 56 150 0.0 0.0 0.00 0.00 0.00 91 988.9
20260508070539 56 150 0.0 0.0 0.00 0.00 0.00 91 988.9
20260508070034 56 150 0.0 0.0 0.00 0.00 0.00 91 988.7
20260508065534 56 150 0.0 0.0 0.00 0.00 0.00 91 988.9
20260508065033 56 150 0.0 0.0 0.00 0.00 0.00 91 988.8
20260508064533 56 150 0.0 0.0 0.00 0.00 0.00 91 988.8
20260508064034 56 150 0.0 0.0 0.00 0.00 0.00 91 988.8
20260508063534 56 150 0.0 0.0 0.00 0.00 0.00 90 988.8
20260508063033 56 150 0.0 0.0 0.00 0.00 0.00 90 988.8
20260508062532 56 150 0.0 0.0 0.00 0.00 0.00 90 988.7
20260508062033 56 150 0.0 0.0 0.00 0.00 0.00 90 988.8
20260508061532 56 150 0.0 0.0 0.00 0.00 0.00 90 988.7
20260508061032 57 150 0.0 0.0 0.00 0.00 0.00 89 988.7
20260508060531 57 150 0.0 0.0 0.00 0.00 0.00 89 988.7
20260508060032 57 150 0.0 0.0 0.00 0.00 0.00 89 988.5
20260508055533 57 150 0.0 0.0 0.00 0.00 0.00 89 988.6
20260508055031 57 150 0.0 0.0 0.00 0.00 0.00 89 988.6
20260508054534 57 150 0.0 0.0 0.00 0.00 0.00 88 988.5
20260508054031 58 150 0.0 0.0 0.00 0.00 0.00 88 988.5
20260508053533 58 150 0.0 0.0 0.00 0.00 0.00 88 988.5
20260508053031 58 150 0.0 0.0 0.00 0.00 0.00 88 988.4
20260508052531 58 150 0.0 0.0 0.00 0.00 0.00 88 988.5
20260508052030 58 149 0.0 0.0 0.00 0.00 0.00 88 988.4
20260508051530 58 150 0.0 0.0 0.00 0.00 0.00 87 988.3
20260508051031 59 150 0.0 0.0 0.00 0.00 0.00 87 988.4
20260508050530 59 150 0.0 0.0 0.00 0.00 0.00 87 988.3
20260508050029 59 150 0.0 0.0 0.00 0.00 0.00 87 988.3
20260508045031 59 150 0.0 0.0 0.00 0.00 0.00 87 988.3
20260508044530 59 150 0.0 0.0 0.00 0.00 0.00 87 988.1
20260508044029 59 150 0.0 0.0 0.00 0.00 0.00 86 988.3
20260508043528 59 150 0.0 0.0 0.00 0.00 0.00 86 988.3
20260508043028 60 149 0.0 0.0 0.00 0.00 0.00 85 988.2
20260508042528 60 150 0.0 0.0 0.00 0.00 0.00 85 988.1
20260508042027 60 149 0.0 0.0 0.00 0.00 0.00 84 988.1
20260508041533 61 149 0.0 0.0 0.00 0.00 0.00 84 988.0
20260508041027 61 149 0.0 0.0 0.00 0.00 0.00 83 987.9
20260508040527 61 149 0.0 0.0 0.00 0.00 0.00 83 987.9
20260508040026 62 150 0.0 0.0 0.00 0.00 0.00 83 987.9
20260508035526 62 150 0.0 0.0 0.00 0.00 0.00 82 987.8
20260508035028 62 150 0.0 0.0 0.00 0.00 0.00 82 987.8
20260508034526 62 150 0.0 0.0 0.00 0.00 0.00 82 987.9
20260508034025 63 150 0.0 0.0 0.00 0.00 0.00 81 987.7
20260508033525 63 150 0.0 1.0 0.00 0.00 0.00 81 987.6
20260508033034 63 150 0.0 3.0 0.00 0.00 0.00 81 987.6
20260508032527 64 150 1.0 3.0 0.00 0.00 0.00 80 987.6
20260508032025 64 150 0.0 5.0 0.00 0.00 0.00 80 987.5
20260508031525 64 148 1.0 4.0 0.00 0.00 0.00 79 987.5
20260508031024 65 143 0.0 4.0 0.00 0.00 0.00 78 987.4
20260508030524 65 142 0.0 0.0 0.00 0.00 0.00 76 987.3
20260508030034 66 142 0.0 0.0 0.00 0.00 0.00 76 987.3
20260508025526 66 142 0.0 0.0 0.00 0.00 0.00 75 987.2
20260508025025 66 142 0.0 0.0 0.00 0.00 0.00 75 987.3
20260508024524 66 142 0.0 0.0 0.00 0.00 0.00 75 987.1
20260508024024 67 142 0.0 0.0 0.00 0.00 0.00 74 987.2
20260508023524 67 142 0.0 0.0 0.00 0.00 0.00 74 987.2
20260508023036 68 142 0.0 1.0 0.00 0.00 0.00 73 987.0
20260508022523 68 142 0.0 0.0 0.00 0.00 0.00 72 987.0
20260508022023 68 142 0.0 0.0 0.00 0.00 0.00 72 986.9
20260508021522 69 142 0.0 3.0 0.00 0.00 0.00 71 986.8
20260508021022 69 142 1.0 4.0 0.00 0.00 0.00 70 986.8
20260508020522 70 145 1.0 4.0 0.00 0.00 0.00 70 986.9
20260508020022 70 202 2.0 4.0 0.00 0.00 0.00 70 986.9
20260508015522 70 201 0.0 5.0 0.00 0.00 0.00 69 986.8
20260508015022 70 201 2.0 5.0 0.00 0.00 0.00 69 986.9
20260508014522 70 203 1.0 5.0 0.00 0.00 0.00 69 986.8
20260508014022 70 202 2.0 6.0 0.00 0.00 0.00 68 986.8
20260508013523 71 201 2.0 6.0 0.00 0.00 0.00 68 986.7
20260508013023 71 195 3.0 6.0 0.00 0.00 0.00 68 986.8
20260508012520 71 184 2.0 7.0 0.00 0.00 0.00 68 986.8
20260508012022 71 202 3.0 7.0 0.00 0.00 0.00 68 986.7
20260508011521 71 204 3.0 7.0 0.00 0.00 0.00 67 986.8
20260508011020 71 157 2.0 7.0 0.00 0.00 0.00 67 986.7
20260508010520 72 217 3.0 7.0 0.00 0.00 0.00 66 986.8
20260508010119 72 188 3.0 6.0 0.00 0.00 0.00 66 986.7